Weather History for KTTD - November, 2012

Change the Weather History Date:

Thursday, November 8, 2012

  Actual Average Record
Temperature  
Mean Temperature 46 °F 48 °F  
Max Temperature 51 °F 55 °F 63 °F (1995)
Min Temperature 40 °F 40 °F 26 °F (1948)
Degree Days  
Heating Degree Days 19 17  
Month to date heating degree days 75 132  
Cooling Degree Days 0 0  
Month to date cooling degree days 0 0  
Moisture  
Dew Point 40 °F    
Average Humidity 77    
Maximum Humidity 93    
Minimum Humidity 61    
Precipitation  
Precipitation T in 0.25 in 1.11 in (1963)
Month to date precipitation 1.06 1.83  
Year to date precipitation 37.11 34.35  
Snow  
Snow 0.00 in - - ()
Month to date snowfall 0.0  
Snow Depth 0.00 in    
Sea Level Pressure  
Sea Level Pressure 29.81 in    
Wind  
Wind Speed 2 mph (SSE)    
Max Wind Speed 9 mph    
Max Gust Speed 14 mph    
Visibility 10 miles    
Events Rain    
T = Trace of Precipitation, MM = Missing Value Source: NWS Daily Summary

Daily Weather History Graph

Daily Weather History Graph

Search for Another Location

Airport or City:

Trip Planner

Search our weather history database for the weather conditions in past years. The results will help you decide how hot, cold, wet, or windy it might be!

Date:

Astronomy

Nov. 08, 2012 Rise Set
Actual Time 6:59 AM PST 4:46 PM PST
Civil Twilight 6:28 AM PST 5:17 PM PST
Nautical Twilight 5:52 AM PST 5:53 PM PST
Astronomical Twilight 5:18 AM PST 6:28 PM PST
Moon 12:44 AM PST (11/8) 1:45 PM PST (11/8)
Length of Visible Light 10h 49m
Length of Day
9h 46m
Waning Crescent, 32% of the Moon is Illuminated
Nov 8
Waning Crescent
Nov 13
New
Nov 20
First Quarter
Nov 28
Full
Dec 6
Last Quarter

Hourly Weather History & Observations

Time (PST) Temp. Windchill Dew Point Humidity Pressure Visibility Wind Dir Wind Speed Gust Speed Precip Events Conditions
12:53 AM 41.0 °F - 39.0 °F 93% 29.91 in 9.0 mi Calm Calm - N/A   Mostly Cloudy
1:53 AM 45.0 °F 43.5 °F 41.0 °F 86% 29.89 in 10.0 mi East 3.5 mph - N/A   Overcast
2:53 AM 44.1 °F 41.5 °F 39.9 °F 85% 29.86 in 10.0 mi ESE 4.6 mph - N/A   Mostly Cloudy
3:53 AM 44.1 °F 40.8 °F 39.9 °F 85% 29.84 in 10.0 mi East 5.8 mph - N/A   Overcast
4:53 AM 44.1 °F 40.8 °F 39.9 °F 85% 29.83 in 10.0 mi East 5.8 mph - N/A   Overcast
5:53 AM 44.1 °F 41.5 °F 39.9 °F 85% 29.81 in 10.0 mi ENE 4.6 mph - 0.00 in Rain Light Rain
6:53 AM 43.0 °F - 39.0 °F 86% 29.79 in 10.0 mi Calm Calm - 0.00 in   Overcast
7:53 AM 44.1 °F - 39.0 °F 82% 29.80 in 10.0 mi Calm Calm - N/A   Scattered Clouds
8:53 AM 45.0 °F - 39.9 °F 82% 29.79 in 10.0 mi Calm Calm - N/A   Overcast
9:22 AM 44.6 °F - 39.2 °F 81% 29.78 in 10.0 mi Calm Calm - N/A   Overcast
9:53 AM 46.0 °F 44.8 °F 39.9 °F 79% 29.78 in 10.0 mi West 3.5 mph - N/A   Overcast
10:03 AM 46.4 °F 44.3 °F 39.2 °F 76% 29.78 in 10.0 mi WSW 4.6 mph - N/A   Overcast
10:21 AM 48.2 °F - 39.2 °F 71% 29.77 in 10.0 mi West 3.5 mph - N/A   Mostly Cloudy
10:53 AM 48.0 °F - 39.9 °F 74% 29.78 in 10.0 mi NW 6.9 mph - N/A   Mostly Cloudy
11:53 AM 48.0 °F - 39.9 °F 74% 29.78 in 10.0 mi West 8.1 mph - N/A   Overcast
12:53 PM 48.9 °F - 39.0 °F 69% 29.77 in 10.0 mi Variable 3.5 mph - N/A   Overcast
1:53 PM 50.0 °F - 39.0 °F 66% 29.76 in 10.0 mi Calm Calm - N/A   Clear
2:53 PM 50.0 °F - 37.9 °F 63% 29.77 in 10.0 mi Calm Calm - N/A   Scattered Clouds
3:53 PM 48.9 °F - 41.0 °F 74% 29.78 in 10.0 mi SSW 5.8 mph - N/A   Scattered Clouds
4:53 PM 46.0 °F - 39.9 °F 79% 29.78 in 10.0 mi Calm Calm - N/A   Clear
5:53 PM 44.1 °F - 39.0 °F 82% 29.79 in 10.0 mi Calm Calm - N/A   Mostly Cloudy
6:53 PM 42.1 °F - 39.0 °F 89% 29.80 in 7.0 mi Calm Calm - N/A   Scattered Clouds
7:11 PM 42.8 °F - 39.2 °F 87% 29.80 in 9.0 mi Calm Calm - N/A   Mostly Cloudy
7:53 PM 45.0 °F - 41.0 °F 86% 29.81 in 10.0 mi Calm Calm - N/A   Overcast
8:30 PM 44.6 °F - 41.0 °F 87% 29.81 in 8.0 mi Calm Calm - N/A   Overcast
8:42 PM 44.6 °F 43.1 °F 39.2 °F 81% 29.81 in 9.0 mi SSE 3.5 mph - N/A   Mostly Cloudy
8:53 PM 43.0 °F - 39.9 °F 89% 29.82 in 10.0 mi Calm Calm - N/A   Mostly Cloudy
9:29 PM 42.8 °F 40.1 °F 39.2 °F 87% 29.82 in 9.0 mi ESE 4.6 mph - N/A   Overcast
9:53 PM 44.1 °F 41.5 °F 39.9 °F 85% 29.82 in 10.0 mi SE 4.6 mph - N/A   Overcast
10:53 PM 43.0 °F - 39.9 °F 89% 29.83 in 10.0 mi Calm Calm - N/A   Overcast
11:53 PM 44.1 °F - 39.9 °F 85% 29.84 in 10.0 mi Calm Calm - N/A   Overcast